Hourly Data Report for May 06, 2021

TOBERMORY RCS
ONTARIO
Current Station Operator: ECCC - MSC

45°14'00.000" N
81°38'00.000" W
213.50 m
6128330
71767
TTR

Download Data

Hourly Data (May 2021)
Hourly Data Report for May 6, 2021
TIME
LST
Temp Definition
°C
Dew Point Definition
°C
Rel Hum Definition
%
Precip. Amount Definition
mm

Wind Dir Definition
10's deg

Wind Spd Definition
km/h
Visibility Definition
km
Stn Press Definition
kPa
Hmdx Definition


Wind Chill Definition


Weather Definition


00:00 4.4 0.7 77 0.0 30 9   99.25     LegendNANA
01:00 3.9 1.0 82 0.0 31 8   99.26     LegendNANA
02:00 3.5 1.3 86 0.0 31 6   99.24     LegendNANA
03:00 2.7 1.2 90 0.0 31 9   99.22     LegendNANA
04:00 1.7 0.6 92 0.0 29 6   99.22     LegendNANA
05:00 2.1 1.3 95 0.0 29 9   99.24     LegendNANA
06:00 2.9 1.8 93 0.0 29 10   99.26     LegendNANA
07:00 3.6 2.1 90 0.0 30 11   99.30     LegendNANA
08:00 4.9 2.4 84 0.0 31 11   99.32     LegendNANA
09:00 6.7 1.7 70 0.0 30 9   99.33     LegendNANA
10:00 6.6 2.4 74 0.0 29 10   99.32     LegendNANA
11:00 7.5 2.6 71 0.0 28 10   99.32     LegendNANA
12:00 8.3 2.0 65 0.0 30 12   99.29     LegendNANA
13:00 9.5 1.0 55 0.0 29 14   99.24     LegendNANA
14:00 9.9 -0.1 50 0.0 28 16   99.19     LegendNANA
15:00 9.8 -0.5 48 0.0 26 16   99.13     LegendNANA
16:00 8.4 0.6 58 0.0 26 16   99.13     LegendNANA
17:00 8.8 -2.3 46 0.0 27 15   99.12     LegendNANA
18:00 5.4 1.0 74 0.0 24 16   99.13     LegendNANA
19:00 4.5 0.1 73 0.0 26 13   99.13     LegendNANA
20:00 3.5 0.3 79 0.0 24 8   99.11     LegendNANA
21:00 3.8 0.2 78 0.0 26 11   99.13     LegendNANA
22:00 4.5 1.6 81 0.0 27 13   99.09     LegendNANA
23:00 3.8 1.4 84 0.0 26 9   99.03     LegendNANA

Notes on Data Quality.

Legend

  • E = Estimated
  • M = Missing
  • NA = Not Available*
  • [empty] = Indicates an unobserved value
Date modified: